Location: Gälforsberget
(66.6500°N, 22.4167°E)
Time: 11:58:04
(UTC+00:00)

COSMOS 2455 - Pass Details

Date: 11 April 2026
Orbit: 901 x 907 km, 67.1° (Epoch: 9 May)

Event Time Altitude Azimuth Distance (km) Brightness Sun altitude
Rises 22:34:16 0° 305° (NW) 3,547 6.4 -14.8°
Reaches altitude 10° 22:36:59 10° 297° (WNW) 2,603 5.6 -14.8°
Maximum altitude 22:42:18 34° 235° (SW) 1,471 3.6 -14.7°
Enters shadow 22:45:16 22° 189° (S) 1,897 3.9 -14.7°
